FALCON 9 DEB (52712 NORAD) Tracking and Keplerian Element Data

This shows tracking and keplerian element data for the satellite.

Feedback or suggestion? Click here.




ElementValue
Catalog52712
NameFALCON 9 DEB
Epoch Orbit812
Epoch Day182.1090872
Epoch Year2022
RAAN72.7344
Inclination53.1853
Eccentricity0.0007611
Argument of Perigee251.525
Mean Anonmoly108.4975
Mean Motion16.46965201
Decay Rate0.0984459
L11 52712U 22053BJ 22182.10908720 .09844590 12502-4 18344-3 0 9997
L22 52712 53.1853 72.7344 0007611 251.5250 108.4975 16.46965201 8121

Live tracking and technical data element details for FALCON 9 DEB (NORAD 52712). FALCON 9 DEB can be tracked NOW for your location showing map with azimuth and elevation plus other details from your city location.

Track the satellite on the map from your city or location and see movement details for azimuth, elevation, latitude, longitude, range, height, and movement on the map or in text.







IsCatalogInMostPopularTable: catalog: 52712, numindb: 6
Update: records affected: 1



GetName: 52712 FALCON 9 DEB

Hit Count: updated at: Sun, 14 Aug 2022 00:11:13 GMT